Weather Roundup
Issued by NWS Springfield, MO

Home | Current Version | Previous Version | Text Only | Print | Product List | Glossary On
Versions: 1 2 3 4 5 6 7 8 9 10 11 12 13 14 15 16 17 18 19 20 21 22 23 24 25 26 27 28 29 30 31 32 33 34 35 36 37 38 39 40 41 42 43 44 45 46 47 48 49 50
000
NZUS99 KSGF 270607
HRRSGF

HOURLY WEATHER
NATIONAL WEATHER SERVICE SPRINGFIELD MO
1200 AM CST FRI FEB 27 2015

......SGF CWA......

CITY           SKY/WX    TMP DP  RH WIND       PRES   REMARKS
SPRINGFIELD    CLEAR     13   2  61 N12       30.48R WCI  -1
6HR MIN TEMP:  13; 6HR MAX TEMP:  22;

JOPLIN         PTCLDY    15   4  61 N12       30.53R WCI   2
6HR MIN TEMP:  15; 6HR MAX TEMP:  23;

WEST PLAINS    CLEAR     14   3  61 N9        30.45R WCI   2
6HR MIN TEMP:  14; 6HR MAX TEMP:  20;

ROLLA          CLEAR      8  -1  66 N9        30.48R WCI  -5
6HR MIN TEMP:   8; 6HR MAX TEMP:  19;

OSAGE BEACH    CLEAR     10   0  61 N3        30.52S
BRANSON        CLEAR     14   5  67 N8        30.48R WCI   3

......SURROUNDING SGF CWA......

CITY           SKY/WX    TMP DP  RH WIND       PRES   REMARKS
CHANUTE        PTCLDY    13   1  59 N12       30.55F WCI  -1
PARSONS        MOCLDY    15   2  56 N9G17     30.56  WCI   3
COFFEYVILLE    MOCLDY    16   2  54 NE13      30.56  WCI   2
EMPORIA        CLEAR      8   0  69 N10       30.55S WCI  -6
GROVE OK       PTCLDY    21   9  58 N3        30.54R
ROGERS AR      PTCLDY    16   5  62 N9        30.47S WCI   4
SILOAM SPRINGS MOCLDY    18   3  53 NE9       30.49R WCI   6
HARRISON AR    CLEAR     16   4  59 N10       30.45R WCI   4
NEAR YELLVILLE CLEAR     19   3  49 N10G17    30.49R WCI   8

......KANSAS AND MISSOURI......

CITY           SKY/WX    TMP DP  RH WIND       PRES   REMARKS
KANSAS CTY INT CLEAR      4  -3  73 N7        30.58R WCI  -8
DOWNTOWN KC    CLEAR      8  -3  61 N12       30.61R WCI  -7
COLUMBIA       CLEAR      7  -1  70 N9        30.55R WCI  -7
SEDALIA        CLEAR      9   0  67 N9        30.57R WCI  -4
ST JOSEPH      CLEAR      2  -4  76 N6        30.62S WCI  -9
ST LOUIS       PTCLDY     9  -2  61 N9        30.54R WCI  -4
SPIRIT OF STL  CLEAR      9  -2  61 N7        30.55R WCI  -2
KIRKSVILLE     CLEAR     -1  -5  82 W3        30.55R
WICHITA        CLEAR     14   0  53 NE13      30.54R WCI   0
TOPEKA         CLEAR      7  -1  70 N5        30.61S WCI  -2
OLATHE         CLEAR      8  -3  61 N10       30.56R WCI  -6

......TENNESSEE......

CITY           SKY/WX    TMP DP  RH WIND       PRES   REMARKS
MEMPHIS        FAIR      26  13  57 NE16      30.43S WCI  14
NASHVILLE      CLOUDY    26  16  65 NW13      30.36R WCI  15

......ARKANSAS.......

CITY           SKY/WX    TMP DP  RH WIND       PRES   REMARKS
FAYETTEVILLE   PTCLDY    18   5  57 N5        30.47S WCI  11
FT SMITH       PTCLDY    25   6  44 N9        30.51R WCI  15
LITTLE ROCK    CLEAR     27  13  55 N10G18    30.48R WCI  17

......OKLAHOMA.......

CITY           SKY/WX    TMP DP  RH WIND       PRES   REMARKS
TULSA          CLOUDY    21   4  47 N12       30.54R WCI   9
PONCA CITY     PTCLDY    17   1  49 NE10      30.54  WCI   5
MCALESTER      CLEAR     25   9  50 NE5       30.48F WCI  19
OKLAHOMA CITY  MOCLDY    23   0  36 NE16      30.46S WCI  10

......IOWA............

CITY           SKY/WX    TMP DP  RH WIND       PRES   REMARKS
DES MOINES     CLEAR     -1  -8  72 NW5       30.56S WCI -11
QUAD CITIES    CLEAR     -1 -10  65 W8        30.51S WCI -15

......ILLINOIS........

CITY           SKY/WX    TMP DP  RH WIND       PRES   REMARKS
QUINCY         CLEAR     -3 -11  68 NW7       30.54R WCI -16
CHICAGO        PTCLDY     1  -8  66 NW7       30.42R WCI -12



USA.gov is the U.S. government's official web portal to all federal, state and local government web resources and services.